Preview of NWS' New Version of Forecast
This preview is not operational and should not be used for support decisions.
Latest weather observations around

Caribou, Caribou Municipal Airport (KCAR)

Using English Units (Switch to International System of Units)
Date/ Time (EDT) Wind (mph) Vis. (mi) Weather Sky Cond. Temp (°F) Rel. Humidity Wind Chill (°F) Heat Index (°F) Pressure Precip. (in)
Air Dwpt 6 hour Altimeter (inHg) Sea level (inHg) 1 hr 3 hr 6 hr
Max Min
Oct 15 10:54 SSE 8 10 Clear CLR 50        %     30.08 30.1      
Oct 15 09:54 S 7 10 Mostly Cloudy SCT080 BKN095 45        % 41   30.09 30.11      
Oct 15 08:54 Calm 10 Clear CLR 37        %     30.11 30.13      
Oct 15 07:54 SSE 3 10 Clear CLR 35        % 32   30.11 30.13      
Oct 15 06:54 Calm 10 Mostly Clear FEW120 33        %     30.12 30.15      
Oct 15 05:54 SE 3 10 Mostly Clear FEW120 33        % 30   30.11 30.14      
Oct 15 04:54 S 3 10 Clear CLR 32        % 29   30.11 30.13      
Oct 15 03:54 Calm 10 Mostly Cloudy BKN080 34        %     30.1 30.12      
Oct 15 02:54 S 6 10 Mostly Cloudy BKN085 34        % 29   30.1 30.13      
Oct 15 01:54 Calm 10 Clear CLR 35        %     30.1 30.12      
Oct 15 00:54 SSE 5 10 Clear   34        % 30   30.1 30.12      
Oct 14 23:54 S 5 10 Clear CLR 35        % 31   30.1 30.13      
Oct 14 22:54 WSW 3 10 Clear CLR 38        % 36   30.09 30.11      
Oct 14 21:54 SW 3 10 Clear CLR 38        % 36   30.08 30.11      
Oct 14 20:54 WSW 5 10 Clear CLR 39        % 36   30.07 30.1      
Oct 14 19:54 WSW 3 10 Clear CLR 41        % 39   30.06 30.09      
Oct 14 18:54 Calm 10 Clear CLR 42        %     30.05 30.07      
Oct 14 17:54 W 5 10 Clear CLR 44        % 41   30.04 30.06      
Oct 14 16:54 W 7 10 Clear CLR 47 26     44% 44   30.02 30.04      
Oct 14 15:54 W 8 10 Clear CLR 49 25     39% 45   30 30.03      
Oct 14 14:54 WNW 9 10 Clear CLR 48 26     42% 44   29.99 30.02      
Oct 14 13:54 WNW 9 10 Clear CLR 47 26     44% 43   29.98 30.01      
Oct 14 12:54 WSW 15 10 Mostly Cloudy BKN040 44 25     47% 37   30 30.02      
Oct 14 11:54 NW 15 10 Mostly Cloudy BKN037 42 25     50% 35   30 30.03      
Oct 14 10:54 WNW 9 10 Cloudy OVC034 40 25     55% 34   30.01 30.04      
Oct 14 09:54 W 8 10 Cloudy OVC036 38 27     64% 32   30 30.03      
Oct 14 08:54 W 10 10 Clear CLR 37 27     67% 30   29.99 30.02      
Oct 14 07:54 W 6 10 Clear CLR 33 27     78% 28   29.97 30      
Oct 14 06:54 WSW 5 10 Cloudy OVC042 32 28     85% 27   29.94 29.97      
Oct 14 05:54 WSW 3 10 Mostly Clear FEW045 30 27     88% 27   29.92 29.95      
Oct 14 04:54 Calm 10 Mostly Cloudy BKN044 31 27     85%     29.9 29.93      
Oct 14 03:54 Calm 10 Partly Cloudy SCT048 32 27     81%     29.88 29.91      
Oct 14 02:54 Calm 10 Clear CLR 32 28     85%     29.86 29.89      
Oct 14 01:54 5 10 Mostly Cloudy BKN060 34 28     79% 30   29.85 29.88      
Oct 14 00:54 3 10 Cloudy OVC060 35 29     78% 32   29.84 29.86      
Oct 13 23:54 WSW 5 10 Mostly Cloudy FEW070 BKN110 32 28     85% 27   29.82 29.85      
Oct 13 22:54 Calm 10 Mostly Cloudy BKN110 34 28     79%     29.81 29.83      
Oct 13 21:54 WSW 5 10 Clear CLR 34 28     79% 30   29.79 29.82      
Oct 13 20:54 WSW 3 10 Clear CLR 36 29     75% 33   29.78 29.8      
Oct 13 19:54 W 3 10 Cloudy OVC060 39 30     70% 37   29.76 29.79 0   0
Oct 13 18:54 WNW 7 10 Light Rain BKN041 OVC049 40 29     65% 35   29.74 29.77 0    
Oct 13 17:54 NW 5 10 Light Rain BKN042 OVC060 41 29     62% 38   29.72 29.75 0    
Oct 13 16:54 WNW 5 10 Cloudy OVC047 42 29     59% 39   29.7 29.72      
Oct 13 15:54 WNW 3 10 Cloudy BKN048 OVC060 43 29     57% 41   29.69 29.71      
Oct 13 14:54 WNW 6 10 Cloudy BKN041 OVC049 42 29     59% 38   29.69 29.71      
Oct 13 13:54 WSW 11 10 Cloudy BKN046 OVC055 43 29     57% 37   29.69 29.71     0
Oct 13 12:54 WSW 7 10 Cloudy OVC045 41 29     62% 36   29.69 29.71      
Oct 13 11:54 6 10 Cloudy FEW026 BKN039 OVC049 42 32     67% 38   29.69 29.71 0    
Oct 13 10:54 WSW 8 10 Cloudy FEW020 OVC043 41 32     70% 36   29.68 29.7      
Oct 13 09:54 W 7 10 Cloudy FEW018 OVC041 40 33     76% 35   29.68 29.7      
Oct 13 05:54 WSW 3 10 Partly Cloudy SCT120 38 34     85% 36   29.61 29.63      
Oct 13 00:54 3 10 Cloudy OVC050 40 36     86% 38   29.56 29.58      
Oct 12 21:54 NW 9 10 Cloudy FEW026 OVC055 43 38     82% 38   29.53 29.54 0    
Oct 12 20:27 NNW 13 5 Light Rain FEW013 BKN028 OVC036 45 40     82% 39   29.48   0    
Oct 12 19:37 WNW 9 10 Cloudy BKN025 BKN030 OVC036 46 39     76% 41   29.45        
Oct 12 17:54 W 9 10 Cloudy SCT037 OVC048 49 40     71% 45   29.43 29.44 0    
Oct 12 11:54 WSW 3 10 Cloudy OVC010 49 45     86% 48   29.46 29.48      
Oct 12 11:20 WSW 5 10 Cloudy OVC007 47 44     90% 45   29.47        
Oct 12 09:21 SSW 3 1.75 Fog/Mist OVC003 44 42     93% 43   29.5        
Oct 12 08:54 SSW 5 1 Fog/Mist OVC003 43 41     93% 40   29.5 29.52      
Notice The following observation data may not be complete
Oct 12 08:29   2 Fog/Mist OVC003          %              
Notice The following observation data may not be complete
Oct 12 08:03   1.5 Fog/Mist BKN003 OVC008          %              
Oct 12 07:54 S 3 2.5 Fog/Mist BKN003 OVC010 42 41     96% 40   29.5 29.52 0   0
Oct 12 07:20 Calm 1.75 Fog/Mist FEW002 OVC006 42 41     96%     29.51   0    
Oct 12 07:13 Calm 1.5 Fog/Mist OVC003 42 41     96%     29.51   0    
Notice The following observation data may not be complete
Oct 12 06:04   1.75 Fog/Mist BKN004 OVC008          %              
Oct 12 05:21 Calm 1.75 Fog/Mist OVC009 42 40     92%     29.5   0    
Oct 12 05:15 Calm 2 Fog/Mist OVC010 42 40     92%     29.51   0    
Notice The following observation data may not be complete
Oct 12 02:30   3 Fog/Mist BKN005 OVC008          %              
Oct 12 02:23 ENE 3 2.5 Fog/Mist BKN004 OVC013 42 40     92% 40   29.56        
Oct 12 01:54 E 3 2.5 Fog/Mist FEW004 OVC011 42 40     92% 40   29.58 29.6 0   0
Oct 12 00:38 E 3 10 Clear   42 39     89% 40   29.61        
Oct 12 00:08 ENE 5 10 Clear   41 39     93% 38   29.61        
Oct 11 23:54 ENE 5 9 Clear   41 39     93% 38   29.62 29.64 0    
Notice The following observation data may not be complete
Oct 11 23:09   2.5 Light Rain and Fog/Mist OVC013          %         0    
Oct 11 22:06 E 7 3 Light Rain and Fog/Mist SCT006 OVC010 41 39     93% 36   29.65   0    
Oct 11 17:54 E 8 5 Light Rain and Fog/Mist FEW008 OVC016 40 37     89% 34   29.78 29.8 0    
Oct 11 17:30 E 8 5 Light Rain and Fog/Mist FEW006 OVC016 40 37     89% 34   29.79   0    
Notice The following observation data may not be complete
Oct 11 16:30   3 Light Rain and Fog/Mist BKN006 OVC012          %         0    
Oct 11 16:27 E 7 2 Light Rain and Fog/Mist SCT006 OVC012 40 38     93% 35   29.83   0    
Oct 11 16:17 E 7 1.25 Heavy Rain and Fog/Mist SCT007 OVC010 40 37     89% 35   29.83   0    
Oct 11 15:32 E 6 1.25 Rain and Fog/Mist OVC009 40 38     93% 36   29.85   0    
Oct 11 15:29 E 6 1.5 Rain and Fog/Mist SCT006 OVC011 40 38     93% 36   29.85   0    
Oct 11 14:22 ESE 8 1.75 Light Rain and Fog/Mist BKN004 OVC010 39 37     93% 33   29.86   0    
Oct 11 14:13 ESE 9 1.25 Light Rain and Fog/Mist BKN005 OVC009 39 37     93% 33   29.86   0    
Oct 11 14:05 ESE 9 1.5 Light Rain and Fog/Mist SCT005 OVC009 39 37     93% 33   29.87   0    
Oct 11 12:42 E 8 1 Rain and Fog/Mist BKN006 OVC010 39 36     89% 33   29.91   0    
Oct 11 12:30 E 9 1.75 Light Rain and Fog/Mist OVC008 39 36     89% 33   29.92   0    
Oct 11 12:10 ESE 9 2.5 Rain and Fog/Mist BKN006 OVC012 38 36     92% 31   29.93   0    
Oct 11 10:54 ESE 10 2 Rain and Fog/Mist BKN014 OVC019 37 35     92% 30   29.98 30.01 0 0  
Oct 11 10:50 E 8 1.75 Rain and Fog/Mist SCT011 OVC017 37 36     93% 31   29.98   0    
Oct 11 10:48 E 9 2 Rain and Fog/Mist BKN011 OVC015 37 34     87% 31   29.99   0    
Oct 11 10:42 E 9 4 Light Rain and Fog/Mist FEW009 OVC015 37 34     89% 30   29.99   0    
Oct 11 08:54 ESE 10 6 Light Rain and Fog/Mist BKN007 OVC027 38 35     89% 31   30.01 30.03 0    
Oct 11 08:25 E 10 2.5 Rain and Fog/Mist BKN006 OVC011 38 36     92% 31   30   0    
Oct 11 08:08 E 6 1.75 Heavy Rain and Fog/Mist OVC006 38 36     92% 33   30.04   0    
Oct 11 06:35 E 7 2.5 Heavy Rain and Fog/Mist SCT009 OVC025 39 36     89% 34   30.04   0    
Oct 11 02:40 ENE 7 5 Light Rain and Fog/Mist SCT008 OVC014 40 37     89% 35   30.07   0    
Oct 11 01:40 NE 6 5 Light Rain and Fog/Mist SCT014 OVC048 40 37     89% 36   30.09   0    
Oct 11 00:29 NNE 8 10 Cloudy BKN017 BKN048 OVC055 41 36     82% 36   30.1        
Oct 10 23:14 NNE 9 10 Cloudy BKN016 OVC046 42 37     82% 37   30.1        
Oct 10 17:54 N 8 10 Light Rain OVC050 46 39     76% 42   30.07 30.09 0    
Oct 10 09:54 N 10 10 Cloudy BKN016 OVC021 49 42     77% 45   30.08 30.09      
Oct 10 02:17 NNE 10 6 Light Rain and Fog/Mist FEW006 OVC011 52 49     89%     29.97   0    
Oct 10 00:54 N 6 10 Clear   55 53     93%     29.96 29.97      
Oct 09 23:19 NNE 3 4 Rain and Fog/Mist FEW009 BKN017 OVC039 55 53     93%     29.96   0    
Oct 09 22:39 NNE 9 0.75 Heavy Rain and Fog/Mist BKN012 BKN016 OVC028 55 53     93%     29.95   0    
Oct 09 22:33 N 8 1.75 Heavy Rain and Fog/Mist FEW006 BKN012 OVC028 55 53     93%     29.96   0    
Oct 09 18:54 W 6 10 Cloudy OVC040 70 63     78%     29.95 29.96      
Notice The following observation data may not be complete
Oct 09 18:04   10 Cloudy SCT031 OVC039          %              
Oct 09 17:54 WSW 8 10 Cloudy BKN029 OVC037 70 63     78%     29.94 29.96      
Oct 09 12:54 SSW 13 10 Cloudy OVC005 62 58     86%     29.95 29.96      
Oct 09 12:46 SSW 10 10 Cloudy OVC005 60 58     93%     29.96        
Oct 09 10:32 S 7 1.5 Fog/Mist OVC002 50 49     96%     30.04        
Notice The following observation data may not be complete
Oct 09 07:30   7 Light Rain BKN003 OVC008          %         0    
Oct 09 07:21 SSE 7 2 Rain and Fog/Mist BKN003 OVC010 47 45     93% 44   30.11   0    
Oct 09 04:54 S 6 2 Fog/Mist OVC003 45 44     97% 42   30.15 30.17 0 0  
Oct 09 04:16 SSE 6 1.5 Fog/Mist OVC003 45 43     93% 42   30.16        
Oct 09 03:20 S 6 1.75 Light Rain and Fog/Mist OVC003 45 43     93% 42   30.17   0    
Oct 09 03:01 S 7 2 Light Rain and Fog/Mist OVC004 44 43     96% 40   30.18   0    
Oct 09 02:37 SSE 7 2.5 Light Rain and Fog/Mist OVC004 44 42     93% 40   30.18   0    
Oct 09 01:29 S 10 2 Light Rain and Fog/Mist BKN007 OVC012 44 41     89% 39   30.23   0    
Oct 09 01:22 SSE 7 2.5 Light Rain and Fog/Mist SCT009 OVC014 44 41     89% 40   30.24   0    
Oct 09 01:05 SSE 8 5 Light Rain and Fog/Mist OVC014 44 41     89% 40   30.25   0    
Oct 09 00:30 SSE 8 10 Light Rain BKN022 OVC030 44 39     82% 40   30.27   0    
Oct 08 23:54 SE 7 10 Light Rain SCT036 OVC050 44 39     82% 40   30.27 30.29 0    
Oct 08 13:54 3 10 Clear CLR 51 30     44%     30.45 30.48      
Oct 08 12:54 N 5 10 Clear CLR 49 30     48% 47   30.49 30.51      
Notice The following observation data may not be complete
Oct 08 10:05   10 Partly Cloudy SCT030          %              
Oct 08 09:54 N 5 10 Mostly Cloudy BKN029 44 29     55% 41   30.53 30.55      
Oct 08 05:54 N 5 10 Clear CLR 31 27     85% 26   30.49 30.52      
Oct 08 04:54 Calm 10 Clear CLR 30 27     88%     30.49 30.52      
Oct 07 17:54 NNW 7 10 Cloudy OVC028 44 33     65% 40   30.35 30.37      
Oct 07 13:54 N 7 10 Cloudy OVC025 45 35     68% 41   30.3 30.32      
Oct 07 11:54 N 10 10 Cloudy OVC015 44 36     73% 39   30.28 30.3      
Oct 07 11:25 N 14 10 Cloudy OVC015 44 37     76% 37   30.27        
Oct 07 11:14 N 11 10 Cloudy OVC014 44 37     76% 38   30.27        
Oct 07 10:54 N 9 10 Cloudy OVC015 44 37     76% 39   30.26 30.28      
Oct 07 10:32 N 11 10 Cloudy OVC015 44 38     79% 38   30.25        
Oct 07 07:54 NNW 9 10 Cloudy FEW010 BKN017 OVC033 44 40     85% 39   30.18 30.2      
Oct 07 07:50 NNW 9 10 Cloudy SCT010 BKN017 OVC033 45 39     81% 40   30.17        
Oct 07 06:27 NNW 9 10 Cloudy OVC010 45 41     86% 40   30.11        
Oct 07 05:54 NNW 11 10 Cloudy OVC007 46 42     86% 41   30.09 30.11      
Oct 07 05:21 NNW 6 10 Cloudy BKN009 OVC014 46 43     89% 43   30.07        
Oct 06 23:07 ENE 6 10 Cloudy OVC030 46 42     86% 43   30.03   0    
Oct 06 22:39 E 5 4 Rain BKN026 OVC033 46 41     82% 44   30.04   0    
Oct 06 19:54 S 7 10 Light Rain OVC055 49 33     54% 46   30.07 30.09 0   0
Oct 06 15:54 S 5 10 Cloudy OVC070 51 27     39%     30.14 30.17      
Oct 06 11:54 Calm 10 Cloudy OVC110 46 26     45%     30.23 30.25      
Oct 06 07:54 Calm 10 Cloudy OVC120 37 28     70%     30.27 30.29      
Oct 06 05:54 NW 6 10 Clear CLR 35 28     75% 30   30.26 30.28      
Oct 06 04:54 NW 3 10 Clear CLR 37 28     70% 35   30.23 30.26      
Oct 06 03:54 NNW 5 10 Partly Cloudy SCT095 36 27     70% 32   30.24 30.26      
Oct 05 23:54 NNW 7 10 Clear CLR 38 27     64% 33   30.22 30.24      
Oct 05 20:54 N 5 10 Clear CLR 42 25     50% 39   30.22 30.25      
Oct 05 17:54 NNW 5 10 Clear CLR 46 22     38% 44   30.19 30.22      
Oct 05 16:54 N 6 10 Clear CLR 50 19     29%     30.18 30.2      
Oct 05 14:54 WNW 7 10 Clear CLR 51 20     29%     30.19 30.21      
Oct 05 12:54   10 Clear CLR 49 20     31%     30.22 30.24      
Oct 05 08:54 NNW 8 10 Clear CLR 40 24     53% 34   30.24 30.26      
Oct 05 07:54 NNW 7 10 Clear CLR 38 23     55% 33   30.22 30.24      
Oct 05 06:54 NNW 8 10 Clear CLR 36 23     59% 30   30.2 30.22      
Oct 05 05:54 NNW 6 10 Clear CLR 36 25     64% 31   30.17 30.19      
Oct 05 04:54 NNW 7 10 Clear CLR 37 28     70% 32   30.14 30.16      
Oct 05 03:54 NW 6 10 Clear CLR 37 29     72% 32   30.11 30.14      
Oct 05 02:54 NNW 5 10 Clear CLR 39 29     67% 36   30.08 30.1      
Oct 05 01:54 NNW 6 10 Clear CLR 41        % 37   30.07 30.09     0
Oct 05 00:54 NNW 11 10 Clear CLR 44        % 38   30.05 30.06      
Oct 04 23:54 NW 9 10 Mostly Cloudy BKN048 46        % 41   30.01 30.03      
Oct 04 22:54 NNW 15 10 Mostly Clear FEW047 48        % 42   29.97 29.98   0  
Oct 04 21:54 NNW 17 10 Cloudy FEW037 BKN047 OVC065 52        %     29.91 29.93 0    
Oct 04 21:27 NNW 15 10 Cloudy FEW016 BKN037 OVC070 54        %     29.89   0    
Oct 04 21:12 N 14 10 Cloudy SCT015 BKN028 OVC075 56        %     29.88   0    
Oct 04 21:05 N 13 10 Cloudy SCT016 BKN029 OVC075 57        %     29.87   0    
Oct 04 20:54 NNW 14 9 Light Rain FEW015 SCT031 BKN075 58        %     29.86 29.87 0    
Oct 04 20:37 WSW 7 10 Mostly Cloudy FEW007 SCT019 BKN033 58        %     29.83   0    
Oct 04 20:20 WNW 5 10 Cloudy SCT007 BKN020 OVC075 58        %     29.82   0    
Oct 04 19:54 WSW 8 10 Cloudy FEW009 FEW050 OVC075 59        %     29.8 29.82     0
Oct 04 19:15 SSW 8 10 Mostly Clear FEW016 58        %     29.79        
Oct 04 18:54 SSW 9 10 Cloudy BKN017 OVC023 59        %     29.78 29.8 0    
Oct 04 18:42 SSW 8 10 Cloudy SCT009 BKN016 OVC020 58        %     29.78   0    
Oct 04 18:13 SSW 8 6 Light Rain and Fog/Mist OVC007 58        %     29.78   0    
Oct 04 17:54 SSW 10 2 Light Rain and Fog/Mist OVC008 58        %     29.76 29.78 0    
Oct 04 17:12 S 11 4 Fog/Mist OVC009 58        %     29.75   0    
Oct 04 17:01 S 9 2.5 Light Rain and Fog/Mist OVC009 58        %     29.74   0    
Oct 04 16:54 S 11 3 Fog/Mist OVC009 58        %     29.74 29.75 0 0  
Oct 04 15:54 S 10 6 Light Rain and Fog/Mist OVC012 58        %     29.73 29.75 0    
Oct 04 14:54 S 15 10 Cloudy OVC013 59        %     29.74 29.75 0    
Oct 04 14:45 S 13 10 Cloudy OVC013 59        %     29.75   0    
Oct 04 13:54 S 11 10 Cloudy OVC017 60        %     29.75 29.76      
Oct 04 12:54 S 16 10 Mostly Cloudy BKN017 60        %     29.74 29.76      
Oct 04 12:22 S 15 10 Cloudy OVC016 59        %     29.76        
Oct 04 11:54 SSE 11 10 Cloudy FEW008 OVC012 56        %     29.78 29.8      
Oct 04 10:54 S 14 10 Cloudy OVC006 53        %     29.82 29.83      
Oct 04 09:54 S 13 10 Cloudy OVC007 52        %     29.85 29.87      
Oct 04 08:54 S 13 10 Cloudy OVC006 51        %     29.9 29.91      
Oct 04 08:35 S 13 10 Cloudy OVC006 50 47     89%     29.91        
Oct 04 07:54 S 11 10 Cloudy OVC005 50 47     89%     29.92 29.93      
Oct 04 06:54 S 8 8 Cloudy OVC005 49 46     90% 45   29.92 29.94      
Oct 04 06:24 S 7 10 Cloudy OVC005 49 46     90% 46   29.93        
Oct 04 05:54 S 8 10 Cloudy OVC007 49 46     90% 45   29.94 29.96      
Oct 04 04:54 SSW 6 10 Cloudy OVC008 50 46     86%     29.96 29.97      
Oct 04 04:10 S 7 10 Cloudy OVC009 50 46     86%     29.98        
Oct 04 03:54 7 10 Cloudy OVC010 50 46     86%     29.98 29.99      
Oct 04 02:54 SW 5 10 Cloudy OVC011 51 46     83%     29.99 30      
Oct 04 01:54 SSW 6 10 Cloudy OVC012 51 46     83%     30.02 30.04      
Oct 04 00:54 SW 3 10 Cloudy OVC013 52 47     83%     30.03 30.04      
Oct 04 00:11 Calm 10 Cloudy OVC014 52 47     83%     30.03        
Oct 03 23:54 Calm 10 Cloudy OVC015 52 48     86%     30.04 30.05      
Oct 03 22:54 SE 3 10 Cloudy OVC016 52 48     86%     30.05 30.07      
Oct 03 21:54 Calm 10 Clear   52 48     86%     30.07 30.09      
Sep 25 09:54 S 13 10 Clear CLR 47 32     56% 41   30.57 30.59      
Sep 25 08:54 SSE 10 10 Clear CLR 41 32     70% 35   30.59 30.61      
May 14 17:54 WNW 13 10 Partly Cloudy SCT100 77 36     23%   75 29.66 29.67      
May 13 03:54 WSW 5 10 Mostly Clear FEW100 41 22     46% 38   30.08 30.1      
May 12 09:54 WSW 9 10 Clear CLR 47 17     30% 43   30.13 30.16      
May 12 02:54 W 6 10 Clear CLR 30 19     63% 24   30.1 30.13      
May 11 23:54 NNW 8 10 Clear CLR 34 20     56% 27   30.09 30.11      
Jun 11 17:54 W 15 10 Clear   87 57     36%   86 29.59 29.59      
Jun 11 11:54 SW 20 10 Clear and Windy CLR 85 60     43%   85 29.55 29.55      
Jun 08 22:54 SSW 7 10 Clear CLR 68 49     50%     29.75 29.75      
Jun 07 09:54 WSW 7 10 Clear CLR 65 43     45%     29.89 29.89      
Jun 06 03:54 NE 6 10 Clear CLR 43 39     86% 39   30.08 30.09